Powrót do katalogu

COSMOS 2251 DEB

AktywnyVLEO
NORAD 47116·DEBRIS·🇷🇺 Russia

Wystrzelony Jun 16, 1993 z Plesetsk Cosmodrome

Loading…

Następne Przeloty (najbliższe 24 godziny)

TLE

ŚwieżeSource: Space-Track

Epoka: Sep 13, 2026, 19:54 UTC

1 47116U 93036BYJ 26256.82975979  .00029209  00000-0  16793-2 0  9997
2 47116  74.0210  36.0755 0017123  68.3185  82.0344 15.12236757636517

Śledź COSMOS 2251 DEB w czasie rzeczywistym z AllMySat

Download on the App Store